OH2FDL-2 Weather Reports


Display with metric or nautical units.
time (UTC)temp
F
wind
direction
speed
MPH
gust
MPH
rain 1hr
in
rain 24hr
in
rain mn
in
humidity
%
barometer
mb
20260904064518 47 0.0 0.0 0.00 0.00 0.00 10 995.9
20260904063018 46 0.0 0.0 0.00 0.00 0.00 10 995.9
20260904061518 45 0.0 0.0 0.00 0.00 0.00 10 996.0
20260904060018 44 0.0 0.0 0.00 0.00 0.00 10 996.1
20260904053018 44 0.0 0.0 0.00 0.00 0.00 10 996.1
20260904051518 43 0.0 0.0 0.00 0.00 0.00 10 996.3
20260904050018 43 0.0 0.0 0.00 0.00 0.00 10 996.4
20260904043018 41 0.0 0.0 0.00 0.00 0.00 10 996.7
20260904040018 40 0.0 0.0 0.00 0.00 0.00 10 997.0
20260904034517 40 0.0 0.0 0.00 0.00 0.00 10 997.3
20260904033018 40 0.0 0.0 0.00 0.00 0.00 10 997.4
20260904031518 40 0.0 0.0 0.00 0.00 0.00 10 997.6
20260904024519 40 0.0 0.0 0.00 0.00 0.00 10 997.9
20260904023023 40 0.0 0.0 0.00 0.00 0.00 10 998.2
20260904021518 41 0.0 0.0 0.00 0.00 0.00 10 998.2
20260904014517 41 0.0 0.0 0.00 0.00 0.00 10 998.4
20260904011518 41 0.0 0.0 0.00 0.00 0.00 10 998.7
20260904010018 41 0.0 0.0 0.00 0.00 0.00 10 998.9
20260904004523 41 0.0 0.0 0.00 0.00 0.00 10 999.1
20260904003018 41 0.0 0.0 0.00 0.00 0.00 10 999.3
20260904001518 42 0.0 0.0 0.00 0.00 0.00 10 999.4
20260904000018 42 0.0 0.0 0.00 0.00 0.00 10 999.5
20260903234518 42 0.0 0.0 0.00 0.00 0.00 10 999.6
20260903233018 42 0.0 0.0 0.00 0.00 0.00 10 999.8
20260903231517 43 0.0 0.0 0.00 0.00 0.00 10 999.9
20260903230023 43 0.0 0.0 0.00 0.00 0.00 10 1000.0
20260903223017 44 0.0 0.0 0.00 0.00 0.00 10 1000.2
20260903221518 44 0.0 0.0 0.00 0.00 0.00 10 1000.3
20260903220017 44 0.0 0.0 0.00 0.00 0.00 10 1000.5
20260903214518 44 0.0 0.0 0.00 0.00 0.00 10 1000.6
20260903213023 45 0.0 0.0 0.00 0.00 0.00 10 1000.7
20260903211518 45 0.0 0.0 0.00 0.00 0.00 10 1000.7
20260903210017 45 0.0 0.0 0.00 0.00 0.00 10 1000.7
20260903204518 46 0.0 0.0 0.00 0.00 0.00 10 1000.8
20260903201518 47 0.0 0.0 0.00 0.00 0.00 10 1001.0
20260903200018 47 0.0 0.0 0.00 0.00 0.00 10 1001.0
20260903194518 48 0.0 0.0 0.00 0.00 0.00 10 1001.2
20260903193018 48 0.0 0.0 0.00 0.00 0.00 10 1001.2
20260903190018 50 0.0 0.0 0.00 0.00 0.00 10 1001.0
20260903184517 51 0.0 0.0 0.00 0.00 0.00 10 1001.2
20260903183017 52 0.0 0.0 0.00 0.00 0.00 10 1001.3
20260903174517 55 0.0 0.0 0.00 0.00 0.00 10 1001.4
20260903173018 56 0.0 0.0 0.00 0.00 0.00 10 1001.4
20260903171517 57 0.0 0.0 0.00 0.00 0.00 10 1001.4
20260903170017 57 0.0 0.0 0.00 0.00 0.00 10 1001.3
20260903164517 58 0.0 0.0 0.00 0.00 0.00 10 1001.1
20260903163018 59 0.0 0.0 0.00 0.00 0.00 10 1001.1
20260903161522 60 0.0 0.0 0.00 0.00 0.00 10 1001.2
20260903160017 60 0.0 0.0 0.00 0.00 0.00 10 1001.2
20260903154518 61 0.0 0.0 0.00 0.00 0.00 10 1001.1
20260903153017 61 0.0 0.0 0.00 0.00 0.00 10 1001.0
20260903151517 62 0.0 0.0 0.00 0.00 0.00 10 1001.1
20260903150017 64 0.0 0.0 0.00 0.00 0.00 10 1001.1
20260903144517 65 0.0 0.0 0.00 0.00 0.00 10 1001.0
20260903141518 65 0.0 0.0 0.00 0.00 0.00 99 1001.1
20260903140018 65 0.0 0.0 0.00 0.00 0.00 98 1001.1
20260903134518 66 0.0 0.0 0.00 0.00 0.00 95 1001.1
20260903133018 66 0.0 0.0 0.00 0.00 0.00 95 1001.1
20260903131517 67 0.0 0.0 0.00 0.00 0.00 96 1001.1
20260903130023 67 0.0 0.0 0.00 0.00 0.00 98 1001.1
20260903124518 67 0.0 0.0 0.00 0.00 0.00 99 1001.2
20260903123019 67 0.0 0.0 0.00 0.00 0.00 10 1001.1
20260903120018 65 0.0 0.0 0.00 0.00 0.00 10 1001.2
20260903114518 65 0.0 0.0 0.00 0.00 0.00 10 1001.1
20260903113018 64 0.0 0.0 0.00 0.00 0.00 10 1001.1
20260903111522 64 0.0 0.0 0.00 0.00 0.00 10 1001.2
20260903110018 63 0.0 0.0 0.00 0.00 0.00 10 1001.3
20260903104518 63 0.0 0.0 0.00 0.00 0.00 10 1001.5
20260903103018 63 0.0 0.0 0.00 0.00 0.00 10 1001.5
20260903101518 63 0.0 0.0 0.00 0.00 0.00 10 1001.5
20260903100018 63 0.0 0.0 0.00 0.00 0.00 10 1001.6
20260903094523 63 0.0 0.0 0.00 0.00 0.00 10 1001.7
20260903091518 63 0.0 0.0 0.00 0.00 0.00 10 1001.7
20260903090018 62 0.0 0.0 0.00 0.00 0.00 10 1001.9
20260903083020 62 0.0 0.0 0.00 0.00 0.00 10 1001.9
20260903081518 61 0.0 0.0 0.00 0.00 0.00 10 1002.0
20260903080022 61 0.0 0.0 0.00 0.00 0.00 10 1002.1
20260903071517 57 0.0 0.0 0.00 0.00 0.00 10 1002.1
20260903070018 56 0.0 0.0 0.00 0.00 0.00 10 1002.1